Location: Suiattle Valley
(48.3620°N, 121.4180°W)
Time: 08:00:16
(UTC-08:00)

Envisat - Visible Passes

Search period start: 23 January 2018 00:00
Search period end: 02 February 2018 00:00
Orbit: 764 x 766 km, 98.2° (Epoch: 23 January)

Date Brightness Start Highest point End Pass type
(mag) Time Alt. Az. Time Alt. Az. Time Alt. Az.
23 Jan 3.2 18:56:53 44° ENE 18:57:11 45° ENE 19:02:01 10° N visible
23 Jan 4.9 20:37:04 26° W 20:37:04 26° W 20:40:43 10° NW visible
24 Jan 6.2 06:59:48 10° ENE 07:01:20 11° E 07:02:53 10° ESE visible
24 Jan 4.0 18:19:27 21° E 18:20:46 24° ENE 18:24:46 10° N visible
24 Jan 3.6 19:59:38 55° W 19:59:38 55° W 20:04:27 10° NNW visible
25 Jan 4.7 17:42:18 10° E 17:44:32 13° NE 17:46:46 10° NNE visible
25 Jan 2.8 19:22:12 68° ESE 19:22:41 73° ENE 19:27:46 10° N visible
25 Jan 5.5 21:02:23 17° W 21:02:23 17° W 21:05:29 10° NW visible
26 Jan 3.5 18:44:45 31° E 18:46:07 37° ENE 18:50:46 10° N visible
26 Jan 4.5 20:24:56 33° W 20:25:10 33° W 20:29:47 10° NNW visible
27 Jan 4.2 18:07:18 14° E 18:09:45 20° ENE 18:13:22 10° NNE visible
27 Jan 3.2 19:47:29 58° SSW 19:48:16 69° WSW 19:53:22 10° NNW visible
28 Jan 4.8 17:32:28 10° ENE 17:33:35 11° NE 17:34:41 10° NE visible
28 Jan 2.9 19:10:01 41° SE 19:11:34 60° ENE 19:16:35 10° N visible
28 Jan 5.2 20:50:12 20° WSW 20:51:00 21° W 20:54:47 10° NW visible
29 Jan 3.7 18:32:33 20° ESE 18:35:04 31° ENE 18:39:29 10° N visible
29 Jan 4.1 20:12:44 35° SW 20:13:58 41° W 20:18:47 10° NNW visible
30 Jan 4.4 17:55:37 10° E 17:58:45 17° ENE 18:01:55 10° NNE visible
30 Jan 2.9 19:35:16 40° S 19:37:08 84° WSW 19:42:15 10° NNW visible
30 Jan 5.8 21:15:26 11° WSW 21:16:56 12° W 21:18:57 10° WNW visible
31 Jan 3.1 18:57:46 24° SE 19:00:29 49° ENE 19:05:23 10° N visible
31 Jan 5.0 20:37:57 21° SW 20:39:45 25° W 20:43:57 10° NW visible
01 Feb 6.1 07:02:38 10° ENE 07:04:44 12° E 07:06:50 10° ESE visible
01 Feb 4.0 18:20:16 12° ESE 18:24:02 26° ENE 18:28:11 10° N visible
01 Feb 3.7 20:00:27 29° SSW 20:02:47 51° W 20:07:45 10° NNW visible
